Weather History for Mount Pleasant, SC

Change the Weather History Date:

Friday, June 28, 2013

  Actual Average (KCHS) Record (KCHS)
Temperature  
Mean Temperature 84 °F 81 °F  
Max Temperature 89 °F 90 °F 99 °F (1936)
Min Temperature 78 °F 72 °F 63 °F (1979)
Degree Days  
Heating Degree Days 0 0  
Month to date heating degree days 0  
Since 1 June heating degree days 0  
Since 1 July heating degree days 1975  
Cooling Degree Days 18 16  
Month to date cooling degree days 389  
Year to date cooling degree days 751  
Since 1 June cooling degree days 389  
Growing Degree Days 34 (Base 50)    
Moisture  
Dew Point 76 °F    
Average Humidity 77    
Maximum Humidity 89    
Minimum Humidity 62    
Precipitation  
Precipitation 0.00 in 0.21 in 3.02 in (1997)
Month to date precipitation 5.21  
Year to date precipitation 21.52  
Sea Level Pressure  
Sea Level Pressure 29.76 in    
Wind  
Wind Speed 10 mph (SW)    
Max Wind Speed 18 mph    
Max Gust Speed 28 mph    
Visibility 9 miles    
Events      
T = Trace of Precipitation, MM = Missing Value Source: NWS Daily Summary

Daily Weather History Graph

Daily Weather History Graph

Search for Another Location

Airport:

Trip Planner

Search our weather history database for the weather conditions in past years. The results will help you decide how hot, cold, wet, or windy it might be!

Date:

Astronomy

Jun. 28, 2013 Rise Set
Actual Time 6:13 AM EDT 8:31 PM EDT
Civil Twilight 5:44 AM EDT 9:00 PM EDT
Nautical Twilight 5:09 AM EDT 9:35 PM EDT
Astronomical Twilight 4:31 AM EDT 10:13 PM EDT
Moon No Moon Rise 11:59 AM EDT (6/28)
Length of Visible Light 15h 15m
Length of Day
14h 18m
Waning Gibbous, 66% of the Moon is Illuminated
Jun 28
Waning Gibbous
Jun 30
Last Quarter
Jul 8
New
Jul 15
First Quarter
Jul 22
Full

Hourly Weather History & Observations

Time (EDT) Temp. Heat Index Dew Point Humidity Pressure Visibility Wind Dir Wind Speed Gust Speed Precip Events Conditions
12:15 AM 82.4 °F 90.9 °F 77.0 °F 84% 29.84 in 9.0 mi SSW 10.4 mph 16.1 mph N/A   Clear
12:35 AM 82.4 °F 90.9 °F 77.0 °F 84% 29.85 in 8.0 mi SW 9.2 mph - N/A   Partly Cloudy
12:55 AM 82.4 °F 90.9 °F 77.0 °F 84% 29.85 in 9.0 mi SSW 8.1 mph - N/A   Partly Cloudy
1:15 AM 82.4 °F 90.9 °F 77.0 °F 84% 29.84 in 8.0 mi SSW 12.7 mph 18.4 mph N/A   Partly Cloudy
1:35 AM 82.4 °F 92.4 °F 78.8 °F 89% 29.83 in 7.0 mi SSW 12.7 mph 16.1 mph N/A   Clear
1:55 AM 82.4 °F 92.4 °F 78.8 °F 89% 29.82 in 7.0 mi SSW 9.2 mph 16.1 mph N/A   Clear
2:15 AM 82.4 °F 92.4 °F 78.8 °F 89% 29.83 in 8.0 mi SW 9.2 mph 17.3 mph N/A   Clear
2:35 AM 82.4 °F 92.4 °F 78.8 °F 89% 29.83 in 8.0 mi SW 8.1 mph - N/A   Clear
2:55 AM 82.4 °F 92.4 °F 78.8 °F 89% 29.82 in 9.0 mi SW 8.1 mph - N/A   Clear
3:15 AM 80.6 °F 86.2 °F 75.2 °F 84% 29.82 in 10.0 mi SW 6.9 mph - N/A   Clear
3:35 AM 80.6 °F 86.2 °F 75.2 °F 84% 29.82 in 10.0 mi SW 8.1 mph - N/A   Clear
3:55 AM 80.6 °F 86.2 °F 75.2 °F 84% 29.81 in 10.0 mi SW 5.8 mph - N/A   Scattered Clouds
4:15 AM 80.6 °F 85.4 °F 73.4 °F 79% 29.81 in 10.0 mi SW 6.9 mph - N/A   Scattered Clouds
4:35 AM 80.6 °F 85.4 °F 73.4 °F 79% 29.80 in 10.0 mi SSW 8.1 mph - N/A   Scattered Clouds
4:55 AM 78.8 °F - 73.4 °F 83% 29.79 in 10.0 mi SW 9.2 mph - N/A   Partly Cloudy
5:15 AM 78.8 °F - 73.4 °F 83% 29.79 in 10.0 mi SW 9.2 mph - N/A   Clear
5:35 AM 78.8 °F - 73.4 °F 83% 29.79 in 10.0 mi SW 8.1 mph - N/A   Clear
5:55 AM 78.8 °F - 73.4 °F 83% 29.78 in 10.0 mi SW 9.2 mph - N/A   Clear
6:15 AM 78.8 °F - 73.4 °F 83% 29.78 in 10.0 mi SW 9.2 mph - N/A   Clear
6:35 AM 78.8 °F - 73.4 °F 83% 29.79 in 9.0 mi SW 6.9 mph - N/A   Clear
6:55 AM 78.8 °F - 73.4 °F 83% 29.79 in 9.0 mi SW 6.9 mph - N/A   Clear
7:15 AM 78.8 °F - 73.4 °F 83% 29.80 in 9.0 mi SW 6.9 mph - N/A   Clear
7:35 AM 78.8 °F - 73.4 °F 83% 29.80 in 10.0 mi SW 8.1 mph - N/A   Clear
7:55 AM 78.8 °F - 73.4 °F 83% 29.80 in 10.0 mi SW 10.4 mph - N/A   Partly Cloudy
8:15 AM 80.6 °F 86.2 °F 75.2 °F 84% 29.81 in 9.0 mi WSW 8.1 mph - N/A   Partly Cloudy
9:15 AM 82.4 °F 88.2 °F 73.4 °F 74% 29.80 in 10.0 mi WSW 13.8 mph 17.3 mph N/A   Partly Cloudy
9:35 AM 82.4 °F 88.2 °F 73.4 °F 74% 29.80 in 10.0 mi WSW 11.5 mph 18.4 mph N/A   Clear
9:55 AM 82.4 °F 88.2 °F 73.4 °F 74% 29.79 in 9.0 mi WSW 10.4 mph 17.3 mph N/A   Clear
10:15 AM 82.4 °F 89.5 °F 75.2 °F 79% 29.79 in 10.0 mi WSW 8.1 mph - N/A   Clear
10:35 AM 84.2 °F 92.3 °F 75.2 °F 74% 29.79 in 10.0 mi West 8.1 mph 18.4 mph N/A   Clear
10:55 AM 84.2 °F 90.9 °F 73.4 °F 70% 29.79 in 10.0 mi West 10.4 mph 16.1 mph N/A   Scattered Clouds
11:15 AM 86.0 °F 95.1 °F 75.2 °F 70% 29.79 in 9.0 mi West 9.2 mph - N/A   Partly Cloudy
11:35 AM 86.0 °F 95.1 °F 75.2 °F 70% 29.79 in 9.0 mi West 9.2 mph 16.1 mph N/A   Partly Cloudy
11:55 AM 87.8 °F 97.6 °F 75.2 °F 66% 29.79 in 9.0 mi WSW 11.5 mph - N/A   Partly Cloudy
12:15 PM 87.8 °F 97.6 °F 75.2 °F 66% 29.79 in 10.0 mi WSW 9.2 mph - N/A   Clear
12:35 PM 87.8 °F 97.6 °F 75.2 °F 66% 29.78 in 9.0 mi SW 10.4 mph - N/A   Clear
12:55 PM 89.6 °F 99.8 °F 75.2 °F 62% 29.77 in 9.0 mi SSW 8.1 mph - N/A   Clear
1:15 PM 89.6 °F 102.2 °F 77.0 °F 66% 29.77 in 9.0 mi SW 6.9 mph - N/A   Clear
1:35 PM 89.6 °F 104.7 °F 78.8 °F 70% 29.76 in 8.0 mi South 6.9 mph - N/A   Partly Cloudy
1:55 PM 89.6 °F 104.7 °F 78.8 °F 70% 29.75 in 8.0 mi South 17.3 mph - N/A   Partly Cloudy
2:15 PM 89.6 °F 104.7 °F 78.8 °F 70% 29.75 in 8.0 mi South 17.3 mph - N/A   Partly Cloudy
2:35 PM 89.6 °F 104.7 °F 78.8 °F 70% 29.74 in 8.0 mi South 15.0 mph 19.6 mph N/A   Clear
2:55 PM 89.6 °F 104.7 °F 78.8 °F 70% 29.74 in 7.0 mi South 16.1 mph 19.6 mph N/A   Clear
3:15 PM 89.6 °F 104.7 °F 78.8 °F 70% 29.74 in 8.0 mi SSW 12.7 mph - N/A   Clear
3:35 PM 89.6 °F 104.7 °F 78.8 °F 70% 29.73 in 7.0 mi SSW 15.0 mph 20.7 mph N/A   Clear
3:55 PM 89.6 °F 104.7 °F 78.8 °F 70% 29.73 in 8.0 mi South 12.7 mph 24.2 mph N/A   Partly Cloudy
4:15 PM 89.6 °F 104.7 °F 78.8 °F 70% 29.73 in 8.0 mi SSW 17.3 mph 21.9 mph N/A   Partly Cloudy
4:35 PM 89.6 °F 104.7 °F 78.8 °F 70% 29.72 in 8.0 mi South 18.4 mph 26.5 mph N/A   Scattered Clouds
4:55 PM 87.8 °F 102.5 °F 78.8 °F 75% 29.72 in 8.0 mi SSW 18.4 mph 27.6 mph N/A   Mostly Cloudy
5:15 PM 87.8 °F 102.5 °F 78.8 °F 75% 29.72 in 7.0 mi SSW 18.4 mph 25.3 mph N/A   Scattered Clouds
5:35 PM 87.8 °F 102.5 °F 78.8 °F 75% 29.71 in 7.0 mi SSW 16.1 mph 24.2 mph N/A   Partly Cloudy
5:55 PM 87.8 °F 102.5 °F 78.8 °F 75% 29.70 in 7.0 mi SSW 8.1 mph 20.7 mph N/A   Scattered Clouds
6:15 PM 87.8 °F 102.5 °F 78.8 °F 75% 29.70 in 7.0 mi SW 12.7 mph 23.0 mph N/A   Mostly Cloudy
6:35 PM 87.8 °F 102.5 °F 78.8 °F 75% 29.69 in 7.0 mi SSW 17.3 mph 27.6 mph N/A   Partly Cloudy
6:55 PM 87.8 °F 99.7 °F 77.0 °F 70% 29.68 in 7.0 mi SSW 12.7 mph - N/A   Clear
7:15 PM 87.8 °F 102.5 °F 78.8 °F 75% 29.69 in 8.0 mi SW 13.8 mph 18.4 mph N/A   Clear
7:35 PM 87.8 °F 102.5 °F 78.8 °F 75% 29.69 in 8.0 mi SW 9.2 mph 17.3 mph N/A   Clear
7:55 PM 86.0 °F 99.3 °F 78.8 °F 79% 29.70 in 8.0 mi SW 8.1 mph 16.1 mph N/A   Clear
8:15 PM 84.2 °F 96.1 °F 78.8 °F 84% 29.70 in 8.0 mi SSW 8.1 mph - N/A   Clear
8:35 PM 84.2 °F 96.1 °F 78.8 °F 84% 29.71 in 8.0 mi SSW 8.1 mph - N/A   Clear
8:55 PM 84.2 °F 94.1 °F 77.0 °F 79% 29.71 in 9.0 mi SSW 8.1 mph - N/A   Clear
9:15 PM 82.4 °F 89.5 °F 75.2 °F 79% 29.71 in 10.0 mi SSW 8.1 mph - N/A   Clear
9:35 PM 82.4 °F 88.2 °F 73.4 °F 74% 29.71 in 10.0 mi SW 6.9 mph - N/A   Clear
9:55 PM 82.4 °F 88.2 °F 73.4 °F 74% 29.70 in 10.0 mi SW 6.9 mph - N/A   Clear
10:15 PM 82.4 °F 88.2 °F 73.4 °F 74% 29.70 in 10.0 mi SW 8.1 mph - N/A   Clear
10:35 PM 82.4 °F 88.2 °F 73.4 °F 74% 29.70 in 10.0 mi SW 6.9 mph - N/A   Clear
10:55 PM 82.4 °F 87.2 °F 71.6 °F 70% 29.70 in 10.0 mi SW 6.9 mph - N/A   Clear
11:15 PM 80.6 °F 85.4 °F 73.4 °F 79% 29.70 in 10.0 mi SW 9.2 mph - N/A   Clear
11:35 PM 80.6 °F 84.6 °F 71.6 °F 74% 29.69 in 10.0 mi SW 8.1 mph - N/A   Clear
11:55 PM 80.6 °F 84.6 °F 71.6 °F 74% 29.70 in 10.0 mi South 8.1 mph - N/A   Clear